Cahokia, IL

8:55 PM CST on December 08, 2019 (GMT -0600)
Saint Louis Downtown

Weather History for KCPS - October, 2019

Change the Weather History Date:

Thursday, October 24, 2019

  Actual Average Record
Temperature  
Mean Temperature 54 °F -  
Max Temperature 62 °F 69 °F 82 °F (1963)
Min Temperature 46 °F 47 °F 25 °F (2006)
Degree Days  
Heating Degree Days 12    
Growing Degree Days 4 (Base 50)    
Moisture  
Dew Point 42 °F    
Average Humidity 76    
Maximum Humidity 83    
Minimum Humidity 50    
Precipitation  
Precipitation 0.03 in - - ()
Sea Level Pressure  
Sea Level Pressure 30.28 in    
Wind  
Wind Speed 7 mph (North)    
Max Wind Speed 12 mph    
Max Gust Speed -    
Visibility 10 miles    
Events Rain    
Averages and records for this station are not official NWS values.
T = Trace of Precipitation, MM = Missing Value Source: NWS Daily Summary

Daily Weather History Graph

Daily Weather History Graph

Search for Another Location

Airport or City:

Astronomy

Oct. 24, 2019 Rise Set
Actual Time 7:18 AM CDT 6:10 PM CDT
Civil Twilight 6:51 AM CDT 6:37 PM CDT
Nautical Twilight 6:20 AM CDT 7:08 PM CDT
Astronomical Twilight 5:49 AM CDT 7:39 PM CDT
Moon 2:53 AM CDT (10/24) 4:34 PM CDT (10/24)
Length of Visible Light 11h 46m
Length of Day
10h 51m
Waning Crescent, 16% of the Moon is Illuminated
Oct 24
Waning Crescent
Oct 27
New
Nov 4
First Quarter
Nov 12
Full
Nov 19
Last Quarter

Hourly Weather History & Observations

Time (CDT) Temp. Dew Point Humidity Pressure Visibility Wind Dir Wind Speed Gust Speed Precip Events Conditions
12:53 AM 61.0 °F 42.1 °F 50% 30.09 in 10.0 mi Variable 3.5 mph - N/A   Clear
1:53 AM 59.0 °F 42.1 °F 53% 30.10 in 10.0 mi WSW 4.6 mph - N/A   Clear
2:53 AM 57.0 °F 41.0 °F 55% 30.12 in 10.0 mi WNW 5.8 mph - N/A   Clear
3:53 AM 54.0 °F 42.1 °F 64% 30.14 in 10.0 mi NW 5.8 mph - N/A   Clear
4:53 AM 52.0 °F 44.1 °F 74% 30.17 in 10.0 mi North 11.5 mph - N/A   Clear
5:53 AM 48.9 °F 43.0 °F 80% 30.22 in 10.0 mi North 9.2 mph - N/A   Scattered Clouds
6:53 AM 48.0 °F 42.1 °F 80% 30.24 in 10.0 mi North 9.2 mph - N/A   Clear
7:53 AM 46.9 °F 41.0 °F 80% 30.25 in 10.0 mi North 10.4 mph - N/A   Clear
8:53 AM 46.9 °F 39.0 °F 74% 30.29 in 10.0 mi North 11.5 mph - N/A   Partly Cloudy
9:53 AM 48.0 °F 39.9 °F 74% 30.30 in 10.0 mi North 11.5 mph - N/A   Mostly Cloudy
10:53 AM 48.0 °F 39.9 °F 74% 30.32 in 10.0 mi North 9.2 mph - N/A   Overcast
11:53 AM 48.0 °F 39.9 °F 74% 30.33 in 10.0 mi North 8.1 mph - N/A   Overcast
12:53 PM 48.0 °F 41.0 °F 77% 30.32 in 10.0 mi NNW 10.4 mph - 0.00 in Rain Light Rain
1:53 PM 48.0 °F 42.1 °F 80% 30.32 in 10.0 mi NNW 8.1 mph - 0.01 in Rain Light Rain
2:53 PM 46.9 °F 41.0 °F 80% 30.32 in 10.0 mi North 6.9 mph - 0.01 in Rain Light Rain
3:27 PM 46.9 °F 42.1 °F 83% 30.32 in 10.0 mi North 10.4 mph - 0.01 in Rain Light Rain
3:53 PM 46.9 °F 42.1 °F 83% 30.31 in 10.0 mi North 9.2 mph - 0.01 in Rain Light Rain
4:08 PM 46.9 °F 42.1 °F 83% 30.31 in 10.0 mi North 9.2 mph - 0.00 in Rain Light Rain
4:44 PM 48.0 °F 42.1 °F 80% 30.30 in 10.0 mi NNE 8.1 mph - 0.00 in   Overcast
4:53 PM 48.0 °F 42.1 °F 80% 30.30 in 10.0 mi NNE 9.2 mph - 0.00 in   Overcast
5:53 PM 46.9 °F 42.1 °F 83% 30.30 in 10.0 mi North 9.2 mph - N/A   Overcast
6:53 PM 46.9 °F 42.1 °F 83% 30.32 in 10.0 mi NNE 4.6 mph - N/A   Overcast
7:53 PM 46.9 °F 42.1 °F 83% 30.34 in 10.0 mi NNW 4.6 mph - N/A   Mostly Cloudy
8:53 PM 48.0 °F 42.1 °F 80% 30.34 in 10.0 mi North 8.1 mph - N/A   Overcast
9:53 PM 48.0 °F 42.1 °F 80% 30.35 in 10.0 mi North 8.1 mph - N/A   Overcast
10:53 PM 48.0 °F 42.1 °F 80% 30.36 in 10.0 mi North 3.5 mph - N/A   Overcast
11:53 PM 48.0 °F 42.1 °F 80% 30.36 in 10.0 mi North 3.5 mph - 0.00 in   Overcast